[[{"header":{"parameterUnit":"m.s-1","parameterCategory":1,"la1":30.2991,"la2":30.254,"lo1":-89.0895,"lo2":-89.0444,"dy":0.0017,"dx":0.0017,"nx":28,"ny":28,"refTime":"2023-08-21T21:00:00:Z","depth":0,"parameterNumber":2,"parameterNumberName":"U-component_of_WINDS"},"data":[0,0,0,0,0,0,0,0,0,0,0,0,0,0,0,0,0,0,0,0,0,0,0,0,0,0,0,0,0,0,0,0,0,0,0,0,0,0,0,0,0,0,0,0,0,0,0,0,0,0,0,0,0,0,0,0,0,0,1.5018,1.502,0,1.5169,1.5171,1.5173,1.5233,1.5233,1.5232,1.5232,1.5397,1.5401,1.5406,0,0,0,0,0,0,0,0,0,0,0,0,0,1.4791,1.4795,1.5018,1.502,1.5022,1.5169,1.5171,1.5173,1.5233,1.5233,1.5232,1.5232,1.5395,1.5401,1.5407,0,0,0,0,0,0,0,0,0,0,0,0,0,1.4911,1.4796,1.5018,1.5069,1.5075,1.5169,1.5171,1.5174,1.5233,1.5233,1.5232,1.5232,1.5393,1.54,1.5407,1.5464,0,0,1.5429,1.5432,0,0,0,0,0,0,0,0,1.4904,1.4919,1.506,1.5066,1.5073,1.5182,1.5152,1.5271,1.5234,1.5174,1.5232,1.5231,1.5326,1.5339,1.5369,1.5471,1.5479,1.543,1.5434,1.5437,1.5439,0,0,0,0,0,0,0,1.4896,1.4913,1.5078,1.5062,1.507,1.5088,1.5104,1.5175,1.5252,1.5179,1.5183,1.52,1.533,1.5362,1.5373,1.5481,1.543,1.5436,1.544,1.5443,1.5641,1.5641,0,0,0,0,0,0,1.4877,1.4906,1.5073,1.5083,1.4985,1.5093,1.5111,1.5147,1.5251,1.5266,1.52,1.5202,1.535,1.5365,1.5379,1.5453,1.5437,1.5444,1.5448,1.564,1.5641,1.5642,0,0,0,0,0,0,1.4872,1.4892,1.5067,1.4995,1.5019,1.5097,1.5138,1.5151,1.5183,1.5267,1.5283,1.5218,1.535,1.5369,1.5442,1.546,1.5447,1.5454,1.5638,1.564,1.5641,1.5601,0,0,0,0,0,0,1.4865,1.4889,1.4909,1.4995,1.5023,1.5124,1.5139,1.5154,1.5194,1.5198,1.5288,1.5303,1.5351,1.5431,1.5449,1.5469,1.5459,1.5637,1.5639,1.5641,1.5601,1.56,1.56,0,0,0,0,0,1.4857,1.4893,1.4909,1.4929,1.5048,1.5125,1.5141,1.5193,1.5195,1.5217,1.5272,1.53,1.5455,1.5438,1.5459,1.5482,1.5636,1.5639,1.5641,1.5601,1.56,1.56,0,0,0,0,0,0,1.481,1.4905,1.4925,1.4989,1.5048,1.5135,1.5164,1.5191,1.5253,1.5254,1.532,1.534,1.5408,1.5453,1.5432,1.5543,1.5548,1.5555,1.5511,1.5511,1.5511,1.5499,1.5465,0,0,0,0,0,1.4806,1.4857,1.4939,1.4989,1.5017,1.5085,1.512,1.5155,1.5221,1.5247,1.5307,1.5372,1.5436,1.5476,1.5539,1.5608,1.563,1.5634,1.5634,1.5633,1.5638,1.568,1.5683,1.5649,1.5649,1.5649,0,0,1.4801,1.4859,1.4888,1.498,1.503,1.5085,1.5106,1.5162,1.5204,1.5257,1.5328,1.5375,1.5452,1.5523,1.5558,1.5563,1.5653,1.5636,1.5635,1.564,1.5683,1.5686,1.5689,1.565,1.565,1.565,0,0,1.4818,1.4866,1.4913,1.4962,1.5036,1.5081,1.5093,1.5176,1.5208,1.528,1.5321,1.5375,1.5482,1.5536,1.5577,1.5617,1.5646,1.5636,1.5635,1.5675,1.5677,1.568,1.5695,1.57,1.5641,1.5641,1.5641,0,1.4802,1.4882,1.4934,1.4988,1.5029,1.5076,1.5126,1.5172,1.5265,1.5293,1.5297,1.5434,1.549,1.5575,1.5584,1.5616,1.5634,1.5625,1.5672,1.5675,1.5679,1.5694,1.57,1.5639,1.5639,1.5639,1.5639,0,1.486,1.4915,1.4944,1.5029,1.5073,1.5125,1.5188,1.5228,1.526,1.5306,1.5381,1.545,1.5528,1.5551,1.5584,1.5642,1.5643,1.5659,1.5665,1.5679,1.5695,1.5701,1.5636,1.5637,1.5638,1.5638,0,0,1.485,1.4962,1.4972,1.5012,1.5098,1.5144,1.52,1.5273,1.5307,1.537,1.542,1.5511,1.5526,1.5573,1.5613,1.5648,1.5677,1.566,1.5663,1.5661,1.5748,1.5735,1.574,1.5697,1.5699,1.57,1.5741,0,1.4878,1.4975,1.5025,1.5102,1.5155,1.5202,1.5251,1.5311,1.5357,1.5412,1.5464,1.5527,1.5542,1.5571,1.5608,1.5665,1.5695,1.5663,1.5747,1.575,1.5725,1.5749,1.5735,1.5771,1.5748,1.5749,1.575,0,1.4924,1.4983,1.5064,1.5145,1.517,1.5212,1.5285,1.5336,1.5407,1.5438,1.5491,1.553,1.5595,1.5597,1.5688,1.5665,1.5703,1.5737,1.574,1.575,1.575,1.5759,1.5783,1.5789,1.576,1.5759,1.5758,0,1.4909,1.501,1.5072,1.5104,1.52,1.5229,1.5271,1.5341,1.5383,1.5448,1.5477,1.555,1.559,1.5648,1.5707,1.5703,1.5794,1.5801,1.5824,1.5822,1.584,1.5838,1.5871,1.5865,1.5865,1.5865,1.5865,0,1.4936,1.4984,1.5066,1.5104,1.5161,1.5219,1.5275,1.5322,1.5384,1.5435,1.5482,1.553,1.5605,1.5664,1.5712,1.5781,1.5799,1.5829,1.5841,1.5824,1.582,1.5849,1.5849,1.5866,1.5866,1.5866,1.5865,0,1.4928,1.4984,1.5055,1.514,1.5162,1.52,1.5275,1.5316,1.5364,1.5428,1.5447,1.5524,1.5596,1.5661,1.5757,1.5789,1.586,1.5875,1.5834,1.5841,1.5861,1.5858,1.5913,1.5924,1.591,1.591,1.591,0,1.4941,1.4978,1.5066,1.5102,1.5142,1.5199,1.5241,1.5303,1.5345,1.543,1.5462,1.5535,1.5598,1.5711,1.5778,1.5852,1.587,1.5884,1.5882,1.5864,1.5871,1.5868,1.5873,1.5883,1.5883,1.5883,1.5883,0,1.4958,1.4984,1.5041,1.5108,1.5156,1.5213,1.5272,1.53,1.5373,1.5419,1.5491,1.5539,1.5636,1.571,1.5792,1.584,1.5875,1.5883,1.5893,1.5876,1.5851,1.5865,1.5832,1.5882,1.5882,1.5882,1.5882,1.5882,1.4961,1.4997,1.5064,1.5127,1.5177,1.5231,1.5273,1.5326,1.5386,1.5466,1.5501,1.5574,1.5648,1.5761,1.5809,1.5871,1.5878,1.5891,1.5895,1.5897,1.5894,1.5841,1.5886,1.5886,1.5886,1.5886,1.5887,0,1.4981,1.5026,1.5083,1.5162,1.5212,1.5237,1.5304,1.5346,1.5408,1.5472,1.5532,1.5616,1.5688,1.5761,1.5839,1.5874,1.5892,1.5893,1.5891,1.5902,1.5883,1.5867,1.5877,1.5877,1.5877,1.5877,1.5877,1.5877,1.4997,1.5059,1.5093,1.5183,1.523,1.5298,1.5334,1.5386,1.5437,1.5527,1.5586,1.5632,1.5702,1.5785,1.5854,1.5874,1.5901,1.5897,1.5922,1.5903,1.5903,1.5903,1.5888,1.5902,1.5902,1.5936,1.5936,1.5936]},{"header":{"parameterUnit":"m.s-1","parameterCategory":1,"la1":30.2991,"la2":30.254,"lo1":-89.0895,"lo2":-89.0444,"dy":0.0017,"dx":0.0017,"nx":28,"ny":28,"refTime":"2023-08-21T21:00:00:Z","depth":0,"parameterNumber":3,"parameterNumberName":"V-component_of_WINDS"},"data":[0,0,0,0,0,0,0,0,0,0,0,0,0,0,0,0,0,0,0,0,0,0,0,0,0,0,0,0,0,0,0,0,0,0,0,0,0,0,0,0,0,0,0,0,0,0,0,0,0,0,0,0,0,0,0,0,0,0,-0.2925,-0.2923,0,-0.2781,-0.2779,-0.2778,-0.2751,-0.2752,-0.2753,-0.2754,-0.2605,-0.26,-0.2595,0,0,0,0,0,0,0,0,0,0,0,0,0,-0.3174,-0.317,-0.2925,-0.2923,-0.2921,-0.2781,-0.2779,-0.2777,-0.2751,-0.2752,-0.2753,-0.2755,-0.2607,-0.2601,-0.2595,0,0,0,0,0,0,0,0,0,0,0,0,0,-0.3052,-0.3168,-0.2925,-0.2891,-0.2887,-0.2782,-0.2779,-0.2777,-0.275,-0.2752,-0.2754,-0.2755,-0.2609,-0.2601,-0.2594,-0.2512,0,0,-0.2571,-0.2568,0,0,0,0,0,0,0,0,-0.3059,-0.3042,-0.2898,-0.2893,-0.2888,-0.2786,-0.2812,-0.2688,-0.275,-0.2802,-0.2754,-0.2756,-0.2664,-0.2652,-0.2621,-0.2505,-0.2499,-0.257,-0.2566,-0.2562,-0.256,0,0,0,0,0,0,0,-0.3067,-0.3048,-0.2868,-0.2896,-0.289,-0.2882,-0.2867,-0.2789,-0.2725,-0.2798,-0.2795,-0.2779,-0.2661,-0.2628,-0.2617,-0.2497,-0.257,-0.2564,-0.2559,-0.2556,-0.2305,-0.2303,0,0,0,0,0,0,-0.3082,-0.3056,-0.2873,-0.2864,-0.2979,-0.2876,-0.2859,-0.2817,-0.2726,-0.2713,-0.2777,-0.2778,-0.264,-0.2626,-0.2612,-0.2509,-0.2562,-0.2555,-0.2551,-0.2307,-0.2305,-0.2303,0,0,0,0,0,0,-0.3087,-0.3066,-0.2878,-0.2959,-0.2935,-0.287,-0.2823,-0.2813,-0.278,-0.271,-0.2699,-0.2755,-0.2641,-0.2622,-0.2537,-0.2503,-0.2552,-0.2545,-0.231,-0.2307,-0.2304,-0.2303,0,0,0,0,0,0,-0.3095,-0.3068,-0.3037,-0.2959,-0.293,-0.2807,-0.2821,-0.2809,-0.2767,-0.2766,-0.2687,-0.2675,-0.2641,-0.2548,-0.2529,-0.2494,-0.2539,-0.2313,-0.2309,-0.2305,-0.2306,-0.23,-0.2296,0,0,0,0,0,-0.3104,-0.3043,-0.3036,-0.3014,-0.289,-0.2805,-0.2789,-0.2751,-0.2765,-0.2732,-0.2687,-0.2678,-0.251,-0.254,-0.2518,-0.248,-0.2315,-0.231,-0.2305,-0.2308,-0.2301,-0.2296,0,0,0,0,0,0,-0.3118,-0.3032,-0.3023,-0.2935,-0.2877,-0.28,-0.2759,-0.2746,-0.2683,-0.2685,-0.2641,-0.2623,-0.2539,-0.2501,-0.2536,-0.2395,-0.2413,-0.2404,-0.2423,-0.2416,-0.2411,-0.2421,-0.2533,0,0,0,0,0,-0.3112,-0.305,-0.2977,-0.2907,-0.2878,-0.2824,-0.2785,-0.2761,-0.2699,-0.2675,-0.2624,-0.2564,-0.2498,-0.2455,-0.239,-0.2301,-0.2282,-0.2263,-0.2258,-0.2255,-0.2247,-0.2195,-0.2185,-0.2287,-0.2287,-0.2287,0,0,-0.3097,-0.3042,-0.3005,-0.2908,-0.2861,-0.2797,-0.2803,-0.2736,-0.2688,-0.2664,-0.258,-0.2541,-0.2471,-0.2383,-0.2341,-0.2348,-0.2215,-0.2249,-0.2246,-0.224,-0.2189,-0.2179,-0.2171,-0.2284,-0.2284,-0.2285,0,0,-0.3036,-0.2989,-0.2924,-0.2877,-0.2805,-0.2769,-0.2753,-0.2678,-0.265,-0.2565,-0.2546,-0.2488,-0.2376,-0.2326,-0.2286,-0.2206,-0.2194,-0.2186,-0.2159,-0.2109,-0.2101,-0.2094,-0.2064,-0.2054,-0.2179,-0.2179,-0.2179,0,-0.3026,-0.293,-0.2892,-0.2825,-0.2782,-0.2759,-0.2692,-0.2647,-0.2558,-0.2529,-0.2538,-0.2395,-0.2347,-0.2246,-0.2226,-0.2195,-0.2175,-0.2195,-0.2106,-0.2098,-0.209,-0.2061,-0.205,-0.2178,-0.2179,-0.2179,-0.2179,0,-0.2921,-0.2854,-0.281,-0.2724,-0.2677,-0.261,-0.2561,-0.2517,-0.2498,-0.246,-0.2373,-0.2314,-0.2236,-0.2211,-0.2191,-0.2106,-0.2113,-0.2115,-0.2131,-0.2081,-0.2052,-0.2041,-0.2178,-0.2178,-0.2178,-0.2178,0,0,-0.2866,-0.2759,-0.2744,-0.2704,-0.2622,-0.257,-0.2502,-0.2426,-0.2388,-0.2328,-0.2268,-0.2173,-0.2174,-0.2128,-0.2103,-0.2059,-0.1997,-0.2066,-0.2063,-0.2054,-0.1899,-0.1897,-0.1885,-0.199,-0.1987,-0.1986,-0.1904,0,-0.2794,-0.2672,-0.2636,-0.2533,-0.247,-0.2446,-0.2386,-0.233,-0.2293,-0.2233,-0.2192,-0.2125,-0.2132,-0.2104,-0.206,-0.2014,-0.1965,-0.202,-0.1933,-0.193,-0.195,-0.187,-0.1868,-0.1794,-0.1893,-0.1891,-0.189,0,-0.2695,-0.2632,-0.2523,-0.2448,-0.242,-0.2368,-0.2294,-0.2238,-0.2173,-0.2149,-0.2098,-0.2076,-0.2003,-0.2025,-0.1923,-0.196,-0.1923,-0.1895,-0.1891,-0.188,-0.1906,-0.1856,-0.177,-0.1759,-0.1872,-0.1874,-0.1875,0,-0.2664,-0.2552,-0.2472,-0.2438,-0.235,-0.2313,-0.2274,-0.221,-0.2167,-0.2103,-0.2074,-0.2002,-0.1962,-0.1907,-0.1866,-0.1886,-0.1767,-0.1786,-0.1744,-0.1745,-0.1719,-0.172,-0.1624,-0.1697,-0.1697,-0.1697,-0.1697,0,-0.2587,-0.2521,-0.2456,-0.2407,-0.2331,-0.229,-0.2216,-0.2176,-0.2119,-0.2061,-0.2036,-0.1982,-0.1931,-0.187,-0.1837,-0.1756,-0.1739,-0.1717,-0.1709,-0.1718,-0.1721,-0.1692,-0.1695,-0.1694,-0.1695,-0.1695,-0.1696,0,-0.254,-0.2494,-0.2404,-0.2327,-0.2307,-0.2254,-0.2188,-0.2138,-0.21,-0.2027,-0.2007,-0.1947,-0.1873,-0.1827,-0.1733,-0.1711,-0.1622,-0.1617,-0.1644,-0.164,-0.16,-0.1604,-0.1481,-0.1462,-0.1549,-0.1548,-0.1547,0,-0.2494,-0.2442,-0.2359,-0.2318,-0.2279,-0.2214,-0.2169,-0.2126,-0.208,-0.2001,-0.196,-0.1885,-0.1822,-0.1705,-0.1653,-0.1581,-0.1573,-0.1534,-0.1561,-0.1572,-0.157,-0.1573,-0.1567,-0.1529,-0.1529,-0.1528,-0.1528,0,-0.2416,-0.2395,-0.2332,-0.2259,-0.2206,-0.2148,-0.2089,-0.2057,-0.2003,-0.1952,-0.1877,-0.1828,-0.1732,-0.1657,-0.158,-0.154,-0.1524,-0.152,-0.1506,-0.1514,-0.1532,-0.152,-0.1631,-0.1522,-0.1523,-0.1523,-0.1524,-0.1524,-0.2366,-0.2318,-0.2252,-0.2182,-0.2133,-0.2078,-0.2027,-0.1983,-0.1919,-0.1837,-0.1816,-0.1736,-0.1671,-0.1566,-0.1523,-0.146,-0.1465,-0.1445,-0.144,-0.1436,-0.1434,-0.1543,-0.1446,-0.1446,-0.1446,-0.1446,-0.1446,0,-0.2286,-0.2242,-0.2178,-0.2096,-0.204,-0.2031,-0.1964,-0.1918,-0.1848,-0.1789,-0.1727,-0.164,-0.1566,-0.1508,-0.1433,-0.1393,-0.1384,-0.1375,-0.1377,-0.1367,-0.1435,-0.1453,-0.1383,-0.1383,-0.1383,-0.1383,-0.1383,-0.1383,-0.2238,-0.2156,-0.2127,-0.2021,-0.1977,-0.1899,-0.1861,-0.181,-0.1762,-0.1665,-0.1604,-0.1567,-0.1507,-0.1427,-0.1359,-0.1344,-0.1317,-0.1309,-0.1292,-0.1356,-0.1363,-0.1369,-0.1387,-0.1304,-0.1303,-0.1229,-0.1229,-0.1228]}]]